ACA7248 CYYZ-MMSM

Flight info

Callsign ACA7248
Flight time N/A
Altitude 40000
Route BETES3 ERI DCT APE DCT FLM DCT BWG DCT MHZ DCT LSU DCT WAHOO M345 AXEXO UM345 PAZ UT154 LONBU UT169 VITOS VITOS2A
Aircraft B763/H-SDE3FGHIM3RWXY/LB1

Departure

Time 2026-05-04 10:11
Airport Toronto Pearson International Airport (CYYZ)

Arrival

Time N/A
Airport Felipe Ángeles International Airport (MMSM)
Time Latitude Longitude Altitude Speed Heading
2026-05-04 10:04 43.67945 -79.63127 563 ft 0 kts 316°
2026-05-04 10:08 43.67956 -79.63087 564 ft 4 kts 96°
2026-05-04 10:08 43.67952 -79.63030 565 ft 4 kts 90°
2026-05-04 10:08 43.67975 -79.62972 566 ft 15 kts 19°
2026-05-04 10:08 43.68147 -79.63163 560 ft 42 kts 314°
2026-05-04 10:09 43.68371 -79.63464 551 ft 48 kts 312°
2026-05-04 10:09 43.68597 -79.63761 544 ft 44 kts 318°
2026-05-04 10:09 43.68808 -79.63944 543 ft 29 kts 19°
2026-05-04 10:09 43.68967 -79.63742 546 ft 32 kts 47°
2026-05-04 10:10 43.69129 -79.63502 550 ft 33 kts 45°
2026-05-04 10:10 43.69334 -79.63429 550 ft 30 kts 347°
2026-05-04 10:10 43.69371 -79.63558 549 ft 16 kts 236°
2026-05-04 10:10 43.69213 -79.63806 546 ft 66 kts 225°
2026-05-04 10:11 43.68729 -79.64525 547 ft 135 kts 228°
2026-05-04 10:11 43.67989 -79.65605 1013 ft 166 kts 227°
2026-05-04 10:11 43.67253 -79.66872 1924 ft 179 kts 236°
2026-05-04 10:11 43.66476 -79.68298 2415 ft 203 kts 225°
2026-05-04 10:12 43.65113 -79.69208 2881 ft 240 kts 193°
2026-05-04 10:12 43.63396 -79.68928 3708 ft 265 kts 168°
2026-05-04 10:12 43.61618 -79.68269 4739 ft 265 kts 177°
2026-05-04 10:12 43.59813 -79.67954 5747 ft 268 kts 180°
2026-05-04 10:13 43.57947 -79.67773 6755 ft 272 kts 183°
2026-05-04 10:13 43.56052 -79.67683 7750 ft 278 kts 184°
2026-05-04 10:13 43.54128 -79.67647 8717 ft 284 kts 185°
2026-05-04 10:13 43.52161 -79.67639 9706 ft 289 kts 185°
2026-05-04 10:14 43.50129 -79.67650 10595 ft 299 kts 186°
2026-05-04 10:14 43.47942 -79.67681 10877 ft 331 kts 185°
2026-05-04 10:16 43.31611 -79.73174 17155 ft 367 kts 207°
2026-05-04 10:16 43.29217 -79.74454 18034 ft 372 kts 207°
2026-05-04 10:16 43.26809 -79.75743 18863 ft 378 kts 207°
2026-05-04 10:16 43.24268 -79.76842 19625 ft 390 kts 199°
2026-05-04 10:17 43.21605 -79.77742 20450 ft 395 kts 200°
2026-05-04 10:17 43.18952 -79.78651 21245 ft 401 kts 199°
2026-05-04 10:19 42.99173 -79.85348 26089 ft 436 kts 199°
2026-05-04 10:19 42.96242 -79.86336 26703 ft 440 kts 199°
2026-05-04 10:19 42.93257 -79.87340 27313 ft 444 kts 199°
2026-05-04 10:19 42.90253 -79.88351 27817 ft 449 kts 199°
2026-05-04 10:20 42.87223 -79.89368 28425 ft 451 kts 199°
2026-05-04 10:20 42.84152 -79.90401 28917 ft 455 kts 199°
2026-05-04 10:20 42.81139 -79.91647 29447 ft 453 kts 205°
2026-05-04 10:20 42.78174 -79.93108 29862 ft 458 kts 204°
2026-05-04 10:21 42.75173 -79.94555 30437 ft 459 kts 204°
2026-05-04 10:21 42.72161 -79.96003 30844 ft 463 kts 204°
2026-05-04 10:21 42.69136 -79.97450 31427 ft 462 kts 204°
2026-05-04 10:21 42.66091 -79.98903 32019 ft 461 kts 204°
2026-05-04 10:22 42.60096 -80.01759 33182 ft 457 kts 205°
2026-05-04 10:22 42.57079 -80.03195 33671 ft 457 kts 205°
2026-05-04 10:22 42.54097 -80.04612 34177 ft 456 kts 205°
2026-05-04 10:23 42.51138 -80.06016 34631 ft 455 kts 205°
2026-05-04 10:23 42.48141 -80.07438 35090 ft 453 kts 205°
2026-05-04 10:25 42.27554 -80.17163 37217 ft 445 kts 205°
2026-05-04 10:25 42.24640 -80.18534 37453 ft 445 kts 205°
2026-05-04 10:25 42.21743 -80.19895 37695 ft 444 kts 205°
2026-05-04 10:25 42.18830 -80.21265 37859 ft 446 kts 205°
2026-05-04 10:26 42.15887 -80.22645 38073 ft 446 kts 205°
2026-05-04 10:26 42.12976 -80.24008 38335 ft 444 kts 205°
2026-05-04 10:26 42.10051 -80.25378 38553 ft 444 kts 205°
2026-05-04 10:26 42.07144 -80.26736 38756 ft 444 kts 205°
2026-05-04 10:27 42.04293 -80.28164 39020 ft 439 kts 210°
2026-05-04 10:27 42.01639 -80.30119 39206 ft 433 kts 220°
2026-05-04 10:27 41.99297 -80.32621 39403 ft 428 kts 227°
2026-05-04 10:27 41.97131 -80.35304 39665 ft 426 kts 228°
2026-05-04 10:28 41.94958 -80.38011 39841 ft 425 kts 228°
2026-05-04 10:28 41.90655 -80.43444 39842 ft 424 kts 229°
2026-05-04 10:29 41.86393 -80.48855 39846 ft 423 kts 229°
2026-05-04 10:29 41.82140 -80.54259 39847 ft 422 kts 229°
2026-05-04 10:30 41.77875 -80.59669 39851 ft 424 kts 229°
2026-05-04 10:30 41.73620 -80.65058 39845 ft 423 kts 228°
2026-05-04 10:31 41.69327 -80.70483 39857 ft 423 kts 228°
2026-05-04 10:32 41.54406 -80.89264 39853 ft 422 kts 228°
2026-05-04 10:33 41.50146 -80.94604 39851 ft 423 kts 228°
2026-05-04 10:33 41.45845 -80.99983 39853 ft 422 kts 228°
2026-05-04 10:34 41.41579 -81.05308 39858 ft 422 kts 228°
2026-05-04 10:34 41.37316 -81.10620 39860 ft 422 kts 229°
2026-05-04 10:35 41.33041 -81.15937 39865 ft 421 kts 229°
2026-05-04 10:35 41.28773 -81.21235 39881 ft 422 kts 229°
2026-05-04 10:36 41.24496 -81.26535 39869 ft 421 kts 229°
2026-05-04 10:36 41.20228 -81.31814 39887 ft 422 kts 229°
2026-05-04 10:37 41.15932 -81.37116 39890 ft 420 kts 229°
2026-05-04 10:37 41.11683 -81.42352 39886 ft 420 kts 229°
2026-05-04 10:39 40.96687 -81.60751 39889 ft 421 kts 229°
2026-05-04 10:40 40.92395 -81.65996 39884 ft 420 kts 228°
2026-05-04 10:40 40.88113 -81.71223 39901 ft 422 kts 228°
2026-05-04 10:41 40.83819 -81.76441 39889 ft 420 kts 228°
2026-05-04 10:41 40.79527 -81.81662 39890 ft 420 kts 228°
2026-05-04 10:42 40.75222 -81.86884 39886 ft 422 kts 228°
2026-05-04 10:42 40.70913 -81.92100 39880 ft 420 kts 228°
2026-05-04 10:43 40.66626 -81.97281 39889 ft 419 kts 229°
2026-05-04 10:45 40.49411 -82.17990 39885 ft 420 kts 229°
2026-05-04 10:45 40.45097 -82.23158 39894 ft 420 kts 229°
2026-05-04 10:46 40.40773 -82.28326 39900 ft 421 kts 229°
2026-05-04 10:46 40.36472 -82.33456 39900 ft 420 kts 229°
2026-05-04 10:47 40.32135 -82.38622 39887 ft 420 kts 229°
2026-05-04 10:47 40.27815 -82.43758 39895 ft 421 kts 229°
2026-05-04 10:49 40.10499 -82.64254 39890 ft 421 kts 229°
2026-05-04 10:50 40.06160 -82.69370 39925 ft 422 kts 228°
2026-05-04 10:52 39.88734 -82.89820 39908 ft 424 kts 229°
2026-05-04 10:52 39.84361 -82.94932 39888 ft 423 kts 228°
2026-05-04 10:54 39.66864 -83.15280 39914 ft 424 kts 229°
2026-05-04 10:56 39.49290 -83.35576 39909 ft 424 kts 228°
2026-05-04 10:57 39.44892 -83.40632 39918 ft 423 kts 229°
2026-05-04 10:57 39.40466 -83.45714 39922 ft 426 kts 228°
2026-05-04 10:58 39.36057 -83.50765 39922 ft 424 kts 229°
2026-05-04 10:58 39.31672 -83.55781 39889 ft 423 kts 228°
2026-05-04 10:59 39.27259 -83.60822 39917 ft 426 kts 228°
2026-05-04 10:59 39.22803 -83.65898 39909 ft 426 kts 227°
2026-05-04 11:00 39.18379 -83.70931 39937 ft 424 kts 227°
2026-05-04 11:02 39.00691 -83.90969 39935 ft 425 kts 228°
2026-05-04 11:05 38.67580 -84.28106 39945 ft 421 kts 228°
2026-05-04 11:06 38.63180 -84.33018 39943 ft 416 kts 232°
2026-05-04 11:06 38.59235 -84.38340 39937 ft 417 kts 233°
2026-05-04 11:10 38.30936 -84.74858 39950 ft 411 kts 232°
2026-05-04 11:12 38.14796 -84.95436 39949 ft 411 kts 232°
2026-05-04 11:12 38.10778 -85.00538 39952 ft 410 kts 232°
2026-05-04 11:13 38.06748 -85.05650 39962 ft 413 kts 232°
2026-05-04 11:13 38.02684 -85.10792 39949 ft 409 kts 232°
2026-05-04 11:14 37.98697 -85.15829 39968 ft 408 kts 232°
2026-05-04 11:16 37.82603 -85.36080 39960 ft 407 kts 233°
2026-05-04 11:16 37.78618 -85.41074 39986 ft 406 kts 233°
2026-05-04 11:17 37.74590 -85.46116 39973 ft 407 kts 233°
2026-05-04 11:19 37.58554 -85.66102 39986 ft 406 kts 232°
2026-05-04 11:19 37.54533 -85.71089 39982 ft 405 kts 232°
2026-05-04 11:20 37.50523 -85.76059 39996 ft 405 kts 232°
2026-05-04 11:20 37.46521 -85.81013 39983 ft 403 kts 232°
2026-05-04 11:22 37.30512 -86.00740 39977 ft 403 kts 233°
2026-05-04 11:23 37.26530 -86.05629 39980 ft 402 kts 232°
2026-05-04 11:25 37.12522 -86.22762 39990 ft 403 kts 232°
2026-05-04 11:25 37.08502 -86.27662 39988 ft 402 kts 232°
2026-05-04 11:27 36.89408 -86.48401 39986 ft 411 kts 224°
2026-05-04 11:28 36.84729 -86.52473 39984 ft 412 kts 224°
2026-05-04 11:28 36.80003 -86.56565 39983 ft 411 kts 223°
2026-05-04 11:29 36.75317 -86.60616 39965 ft 413 kts 224°
2026-05-04 11:29 36.70609 -86.64674 39975 ft 411 kts 223°
2026-05-04 11:33 36.37508 -86.93049 39980 ft 413 kts 223°
2026-05-04 11:33 36.32760 -86.97095 39987 ft 414 kts 223°
2026-05-04 11:34 36.28040 -87.01109 39993 ft 413 kts 223°
2026-05-04 11:34 36.23307 -87.05131 39988 ft 413 kts 223°
2026-05-04 11:35 36.18583 -87.09138 39995 ft 413 kts 223°
2026-05-04 11:35 36.13843 -87.13154 39997 ft 414 kts 223°
2026-05-04 11:36 36.09078 -87.17183 39997 ft 414 kts 223°
2026-05-04 11:36 36.04350 -87.21175 39995 ft 414 kts 223°
2026-05-04 11:37 35.99585 -87.25194 40001 ft 417 kts 223°
2026-05-04 11:37 35.94810 -87.29215 39993 ft 414 kts 223°
2026-05-04 11:38 35.90075 -87.33191 40001 ft 414 kts 223°
2026-05-04 11:38 35.85283 -87.37216 40001 ft 416 kts 223°
2026-05-04 11:39 35.80529 -87.41200 39984 ft 413 kts 223°
2026-05-04 11:41 35.63829 -87.55153 39996 ft 416 kts 223°
2026-05-04 11:41 35.59039 -87.59148 39986 ft 417 kts 223°
2026-05-04 11:42 35.54245 -87.63129 40001 ft 417 kts 223°
2026-05-04 11:42 35.49437 -87.67118 40030 ft 418 kts 222°
2026-05-04 11:43 35.44606 -87.71124 40025 ft 418 kts 222°
2026-05-04 11:43 35.39798 -87.75104 40019 ft 417 kts 222°
2026-05-04 11:44 35.34999 -87.79069 40009 ft 416 kts 222°
2026-05-04 11:44 35.30226 -87.83010 40029 ft 416 kts 222°
2026-05-04 11:45 35.25430 -87.86962 40028 ft 417 kts 222°
2026-05-04 11:45 35.20610 -87.90928 40025 ft 416 kts 223°
2026-05-04 11:46 35.15795 -87.94885 40013 ft 417 kts 223°
2026-05-04 11:46 35.10996 -87.98823 40026 ft 417 kts 223°
2026-05-04 11:47 35.06192 -88.02759 40027 ft 416 kts 223°
2026-05-04 11:47 35.01409 -88.06673 40018 ft 416 kts 223°
2026-05-04 11:48 34.96624 -88.10583 40022 ft 416 kts 223°
2026-05-04 11:48 34.91793 -88.14523 40023 ft 415 kts 223°
2026-05-04 11:49 34.87018 -88.18415 40025 ft 416 kts 223°
2026-05-04 11:49 34.82228 -88.22310 40025 ft 414 kts 223°
2026-05-04 11:50 34.77433 -88.26205 40014 ft 414 kts 223°
2026-05-04 11:50 34.72633 -88.30100 40027 ft 415 kts 223°
2026-05-04 11:51 34.67856 -88.33971 40027 ft 415 kts 223°
2026-05-04 11:51 34.63046 -88.37861 40019 ft 414 kts 223°
2026-05-04 11:52 34.58242 -88.41741 40026 ft 414 kts 223°
2026-05-04 11:52 34.53478 -88.45583 40032 ft 413 kts 223°
2026-05-04 11:53 34.48713 -88.49425 40035 ft 413 kts 224°
2026-05-04 11:53 34.43908 -88.53290 40039 ft 415 kts 223°
2026-05-04 11:55 34.24762 -88.68638 40055 ft 415 kts 223°
2026-05-04 11:56 34.19971 -88.72462 40050 ft 413 kts 223°
2026-05-04 11:56 34.15190 -88.76276 40058 ft 413 kts 223°
2026-05-04 11:57 34.10367 -88.80119 40058 ft 414 kts 224°
2026-05-04 11:57 34.05584 -88.83924 40058 ft 414 kts 223°
2026-05-04 11:58 34.00793 -88.87728 40065 ft 413 kts 224°
2026-05-04 11:58 33.96006 -88.91528 40054 ft 413 kts 224°
2026-05-04 11:59 33.91210 -88.95326 40072 ft 411 kts 224°
2026-05-04 11:59 33.86445 -88.99097 40064 ft 412 kts 224°
2026-05-04 12:00 33.81642 -89.02892 40070 ft 410 kts 224°
2026-05-04 12:00 33.76905 -89.06628 40067 ft 411 kts 225°
2026-05-04 12:01 33.72129 -89.10393 40047 ft 412 kts 225°
2026-05-04 12:02 33.55450 -89.23497 40069 ft 411 kts 225°
2026-05-04 12:03 33.50691 -89.27220 40071 ft 407 kts 226°
2026-05-04 12:03 33.45947 -89.30929 40069 ft 409 kts 225°
2026-05-04 12:04 33.41179 -89.34655 40077 ft 408 kts 225°
2026-05-04 12:04 33.36476 -89.38324 40072 ft 406 kts 225°
2026-05-04 12:05 33.31735 -89.42023 40082 ft 407 kts 226°
2026-05-04 12:05 33.26992 -89.45711 40081 ft 409 kts 226°
2026-05-04 12:06 33.22209 -89.49427 40074 ft 409 kts 226°
2026-05-04 12:06 33.17453 -89.53119 40073 ft 408 kts 226°
2026-05-04 12:07 33.12728 -89.56780 40070 ft 409 kts 226°
2026-05-04 12:07 33.07966 -89.60463 40060 ft 406 kts 226°
2026-05-04 12:08 33.03200 -89.64151 40058 ft 410 kts 226°
2026-05-04 12:08 32.98393 -89.67861 40078 ft 412 kts 225°
2026-05-04 12:09 32.93601 -89.71555 40083 ft 411 kts 226°
2026-05-04 12:09 32.88818 -89.75236 40076 ft 411 kts 225°
2026-05-04 12:10 32.83993 -89.78947 40063 ft 412 kts 225°
2026-05-04 12:10 32.79201 -89.82627 40073 ft 412 kts 225°
2026-05-04 12:11 32.74373 -89.86332 40072 ft 414 kts 225°
2026-05-04 12:11 32.69541 -89.90029 40065 ft 413 kts 225°
2026-05-04 12:12 32.64670 -89.93759 40076 ft 417 kts 225°
2026-05-04 12:12 32.59831 -89.97451 40075 ft 414 kts 225°
2026-05-04 12:14 32.40091 -90.12009 40089 ft 429 kts 220°
2026-05-04 12:15 32.34869 -90.15306 40087 ft 427 kts 220°
2026-05-04 12:15 32.29591 -90.18618 40083 ft 428 kts 220°
2026-05-04 12:16 32.24341 -90.21902 40084 ft 429 kts 220°
2026-05-04 12:16 32.19088 -90.25183 40085 ft 427 kts 220°
2026-05-04 12:17 32.13819 -90.28464 40093 ft 427 kts 219°
2026-05-04 12:17 32.08573 -90.31731 40082 ft 428 kts 219°
2026-05-04 12:18 32.03302 -90.35010 40078 ft 429 kts 219°
2026-05-04 12:18 31.98015 -90.38292 40085 ft 430 kts 219°
2026-05-04 12:19 31.92718 -90.41576 40078 ft 429 kts 219°
2026-05-04 12:19 31.87450 -90.44839 40071 ft 429 kts 219°
2026-05-04 12:20 31.82145 -90.48120 40074 ft 431 kts 219°
2026-05-04 12:20 31.76893 -90.51362 40081 ft 427 kts 219°
2026-05-04 12:21 31.71625 -90.54614 40075 ft 429 kts 219°
2026-05-04 12:21 31.66319 -90.57883 40082 ft 430 kts 219°
2026-05-04 12:22 31.61021 -90.61142 40075 ft 430 kts 219°
2026-05-04 12:22 31.55743 -90.64384 40076 ft 428 kts 219°
2026-05-04 12:23 31.50443 -90.67639 40105 ft 431 kts 218°
2026-05-04 12:23 31.45122 -90.70899 40108 ft 431 kts 218°
2026-05-04 12:24 31.39840 -90.74131 40097 ft 429 kts 218°
2026-05-04 12:24 31.34547 -90.77367 40103 ft 430 kts 218°
2026-05-04 12:25 31.29250 -90.80604 40105 ft 433 kts 218°
2026-05-04 12:25 31.23919 -90.83852 40107 ft 431 kts 218°
2026-05-04 12:26 31.18594 -90.87095 40112 ft 431 kts 218°
2026-05-04 12:26 31.13272 -90.90333 40108 ft 431 kts 218°
2026-05-04 12:27 31.07966 -90.93555 40116 ft 431 kts 218°
2026-05-04 12:27 31.02660 -90.96774 40115 ft 429 kts 218°
2026-05-04 12:28 30.97372 -90.99979 40115 ft 431 kts 218°
2026-05-04 12:28 30.92044 -91.03202 40113 ft 430 kts 218°
2026-05-04 12:29 30.86745 -91.06406 40108 ft 430 kts 218°
2026-05-04 12:29 30.81435 -91.09611 40105 ft 430 kts 218°
2026-05-04 12:30 30.76111 -91.12820 40106 ft 430 kts 218°
2026-05-04 12:30 30.70811 -91.16011 40104 ft 429 kts 218°
2026-05-04 12:31 30.65525 -91.19191 40111 ft 431 kts 218°
2026-05-04 12:31 30.60199 -91.22388 40104 ft 427 kts 219°
2026-05-04 12:32 30.52256 -91.27155 40111 ft 431 kts 218°
2026-05-04 12:33 30.46927 -91.30306 40109 ft 434 kts 217°
2026-05-04 12:33 30.41511 -91.33375 40105 ft 431 kts 218°
2026-05-04 12:34 30.36126 -91.36432 40112 ft 433 kts 218°
2026-05-04 12:34 30.30695 -91.39517 40113 ft 432 kts 217°
2026-05-04 12:35 30.25349 -91.42548 40110 ft 429 kts 218°
2026-05-04 12:35 30.19947 -91.45608 40115 ft 433 kts 218°
2026-05-04 12:36 30.14541 -91.48662 40110 ft 434 kts 218°
2026-05-04 12:36 30.09145 -91.51707 40102 ft 430 kts 218°
2026-05-04 12:37 30.03755 -91.54748 40107 ft 431 kts 218°
2026-05-04 12:37 29.98352 -91.57791 40108 ft 434 kts 218°
2026-05-04 12:38 29.92954 -91.60826 40106 ft 434 kts 218°
2026-05-04 12:38 29.87530 -91.63874 40092 ft 434 kts 218°
2026-05-04 12:39 29.82094 -91.66926 40121 ft 436 kts 217°
2026-05-04 12:39 29.76632 -91.69984 40109 ft 435 kts 217°
2026-05-04 12:40 29.71189 -91.73032 40111 ft 433 kts 218°
2026-05-04 12:40 29.65787 -91.76055 40107 ft 435 kts 217°
2026-05-04 12:41 29.60337 -91.79098 40115 ft 437 kts 218°
2026-05-04 12:41 29.54862 -91.82149 40108 ft 435 kts 218°
2026-05-04 12:42 29.49399 -91.85192 40102 ft 436 kts 218°
2026-05-04 12:42 29.43921 -91.88243 40111 ft 439 kts 218°
2026-05-04 12:43 29.38447 -91.91283 40096 ft 439 kts 218°
2026-05-04 12:43 29.32934 -91.94345 40097 ft 440 kts 218°
2026-05-04 12:44 29.27388 -91.97419 40102 ft 442 kts 218°
2026-05-04 12:44 29.21851 -92.00483 40095 ft 439 kts 218°
2026-05-04 12:45 29.16387 -92.03507 40102 ft 440 kts 217°
2026-05-04 12:45 29.10835 -92.06576 40095 ft 446 kts 218°
2026-05-04 12:46 29.05251 -92.09652 40079 ft 442 kts 218°
2026-05-04 12:46 28.99716 -92.12705 40088 ft 445 kts 218°
2026-05-04 12:47 28.94095 -92.15801 40094 ft 450 kts 218°
2026-05-04 12:47 28.88502 -92.18870 40076 ft 444 kts 218°
2026-05-04 12:48 28.82916 -92.21943 40077 ft 448 kts 218°
2026-05-04 12:48 28.77309 -92.25015 40087 ft 448 kts 218°
2026-05-04 12:49 28.71661 -92.28109 40069 ft 447 kts 218°
2026-05-04 12:49 28.66050 -92.31178 40074 ft 448 kts 218°
2026-05-04 12:50 28.60428 -92.34248 40073 ft 451 kts 218°
2026-05-04 12:50 28.54781 -92.37332 40060 ft 450 kts 218°
2026-05-04 12:51 28.49107 -92.40427 40071 ft 450 kts 218°
2026-05-04 12:51 28.43463 -92.43500 40065 ft 452 kts 219°
2026-05-04 12:52 28.37758 -92.46604 40061 ft 455 kts 219°
2026-05-04 12:52 28.32041 -92.49710 40086 ft 456 kts 218°
2026-05-04 12:53 28.26409 -92.52928 40081 ft 443 kts 226°
2026-05-04 12:53 28.23996 -92.54987 40085 ft 423 kts 236°
2026-05-04 12:53 28.21924 -92.57294 40080 ft 420 kts 239°
2026-05-04 12:54 28.17815 -92.62043 40066 ft 421 kts 240°
2026-05-04 12:54 28.13705 -92.66861 40098 ft 426 kts 239°
2026-05-04 12:55 28.09323 -92.71365 40094 ft 441 kts 227°
2026-05-04 12:55 28.04053 -92.75111 40081 ft 451 kts 225°
2026-05-04 12:56 27.98727 -92.78825 40070 ft 448 kts 225°
2026-05-04 12:56 27.93378 -92.82542 40069 ft 450 kts 225°
2026-05-04 12:57 27.88008 -92.86266 40064 ft 457 kts 225°
2026-05-04 12:57 27.82602 -92.90000 40092 ft 453 kts 225°
2026-05-04 12:58 27.77252 -92.93694 40062 ft 449 kts 225°
2026-05-04 12:58 27.71917 -92.97382 40066 ft 455 kts 224°
2026-05-04 12:59 27.66519 -93.01102 40080 ft 457 kts 224°
2026-05-04 12:59 27.61121 -93.04815 40073 ft 453 kts 224°
2026-05-04 13:00 27.55741 -93.08512 40044 ft 450 kts 224°
2026-05-04 13:00 27.50367 -93.12210 40069 ft 457 kts 224°
2026-05-04 13:01 27.44901 -93.15951 40056 ft 455 kts 224°
2026-05-04 13:01 27.39511 -93.19643 40053 ft 454 kts 223°
2026-05-04 13:02 27.34121 -93.23331 40065 ft 455 kts 223°
2026-05-04 13:02 27.28704 -93.27027 40061 ft 452 kts 224°
2026-05-04 13:03 27.23329 -93.30699 40073 ft 455 kts 224°
2026-05-04 13:03 27.17939 -93.34370 40065 ft 452 kts 223°
2026-05-04 13:04 27.12575 -93.38022 40073 ft 452 kts 223°
2026-05-04 13:04 27.07154 -93.41710 40061 ft 456 kts 223°
2026-05-04 13:05 27.01766 -93.45366 40048 ft 452 kts 223°
2026-05-04 13:05 26.96335 -93.49057 40068 ft 458 kts 223°
2026-05-04 13:06 26.90894 -93.52737 40063 ft 452 kts 223°
2026-05-04 13:06 26.85539 -93.56364 40057 ft 452 kts 223°
2026-05-04 13:07 26.80130 -93.60026 40045 ft 458 kts 223°
2026-05-04 13:07 26.74693 -93.63690 40033 ft 451 kts 223°
2026-05-04 13:08 26.69328 -93.67314 40063 ft 451 kts 222°
2026-05-04 13:08 26.63914 -93.70966 40066 ft 458 kts 222°
2026-05-04 13:09 26.58478 -93.74619 40047 ft 455 kts 222°
2026-05-04 13:09 26.53032 -93.78285 40055 ft 457 kts 222°
2026-05-04 13:10 26.47616 -93.81934 40080 ft 455 kts 222°
2026-05-04 13:10 26.42199 -93.85581 40067 ft 458 kts 222°
2026-05-04 13:11 26.36742 -93.89247 40060 ft 457 kts 222°
2026-05-04 13:11 26.31310 -93.92895 40063 ft 457 kts 222°
2026-05-04 13:12 26.25875 -93.96538 40055 ft 455 kts 222°
2026-05-04 13:12 26.20433 -94.00186 40072 ft 456 kts 222°
2026-05-04 13:13 26.14989 -94.03830 40055 ft 458 kts 221°
2026-05-04 13:13 26.09567 -94.07450 40062 ft 452 kts 222°
2026-05-04 13:14 26.04165 -94.11062 40062 ft 457 kts 222°
2026-05-04 13:14 25.98705 -94.14700 40049 ft 453 kts 221°
2026-05-04 13:15 25.93344 -94.18272 40058 ft 452 kts 221°
2026-05-04 13:15 25.87916 -94.21889 40030 ft 455 kts 221°
2026-05-04 13:16 25.82485 -94.25494 40028 ft 451 kts 221°
2026-05-04 13:16 25.77104 -94.29071 40057 ft 452 kts 221°
2026-05-04 13:17 25.71696 -94.32660 40035 ft 452 kts 221°
2026-05-04 13:17 25.66303 -94.36232 40045 ft 454 kts 221°
2026-05-04 13:18 25.60897 -94.39812 40054 ft 452 kts 220°
2026-05-04 13:18 25.55514 -94.43369 40027 ft 449 kts 221°
2026-05-04 13:19 25.50156 -94.46910 40037 ft 448 kts 220°
2026-05-04 13:19 25.44809 -94.50439 40041 ft 447 kts 220°
2026-05-04 13:20 25.39433 -94.53986 40041 ft 454 kts 220°
2026-05-04 13:20 25.34041 -94.57533 40038 ft 449 kts 220°
2026-05-04 13:21 25.28640 -94.60988 40041 ft 450 kts 219°
2026-05-04 13:21 25.23139 -94.64459 40042 ft 452 kts 218°
2026-05-04 13:22 25.17707 -94.67880 40058 ft 450 kts 218°
2026-05-04 13:22 25.12266 -94.71307 40058 ft 451 kts 218°
2026-05-04 13:23 25.06819 -94.74734 40051 ft 452 kts 218°
2026-05-04 13:23 25.01383 -94.78147 40037 ft 449 kts 218°
2026-05-04 13:24 24.95943 -94.81562 40036 ft 450 kts 218°
2026-05-04 13:24 24.90493 -94.84982 40031 ft 451 kts 218°
2026-05-04 13:25 24.82303 -94.90115 40023 ft 448 kts 218°
2026-05-04 13:25 24.76900 -94.93516 40024 ft 448 kts 217°
2026-05-04 13:26 24.71470 -94.96931 40027 ft 452 kts 217°
2026-05-04 13:26 24.66019 -95.00352 40034 ft 452 kts 217°
2026-05-04 13:27 24.60583 -95.03760 40027 ft 447 kts 217°
2026-05-04 13:27 24.55167 -95.07156 40026 ft 451 kts 217°
2026-05-04 13:28 24.49734 -95.10555 40027 ft 448 kts 217°
2026-05-04 13:28 24.44280 -95.13960 40022 ft 449 kts 217°
2026-05-04 13:29 24.38854 -95.17336 40018 ft 447 kts 217°
2026-05-04 13:29 24.33454 -95.20694 40034 ft 447 kts 217°
2026-05-04 13:30 24.28045 -95.24056 40031 ft 448 kts 217°
2026-05-04 13:30 24.22628 -95.27418 40025 ft 446 kts 217°
2026-05-04 13:31 24.17238 -95.30762 40025 ft 445 kts 217°
2026-05-04 13:31 24.11847 -95.34104 40022 ft 446 kts 217°
2026-05-04 13:32 24.06445 -95.37447 40026 ft 446 kts 216°
2026-05-04 13:32 24.01061 -95.40777 40029 ft 445 kts 217°
2026-05-04 13:33 23.95662 -95.44113 40022 ft 445 kts 216°
2026-05-04 13:33 23.90296 -95.47424 40029 ft 442 kts 217°
2026-05-04 13:34 23.84927 -95.50736 40023 ft 443 kts 216°
2026-05-04 13:34 23.79528 -95.54063 40021 ft 444 kts 216°
2026-05-04 13:35 23.71498 -95.59004 40018 ft 441 kts 216°
2026-05-04 13:36 23.66147 -95.62292 40017 ft 442 kts 216°
2026-05-04 13:36 23.60781 -95.65585 40024 ft 439 kts 216°
2026-05-04 13:37 23.55438 -95.68862 40025 ft 443 kts 216°
2026-05-04 13:37 23.50089 -95.72137 40027 ft 440 kts 216°
2026-05-04 13:38 23.44776 -95.75388 40031 ft 439 kts 216°
2026-05-04 13:38 23.39449 -95.78645 40027 ft 440 kts 216°
2026-05-04 13:39 23.34119 -95.81902 40018 ft 440 kts 216°
2026-05-04 13:39 23.28771 -95.85165 40029 ft 441 kts 216°
2026-05-04 13:40 23.23436 -95.88416 40037 ft 440 kts 216°
2026-05-04 13:40 23.18059 -95.91692 40027 ft 441 kts 216°
2026-05-04 13:41 23.12713 -95.94949 40037 ft 440 kts 216°
2026-05-04 13:41 23.07398 -95.98190 40028 ft 437 kts 216°
2026-05-04 13:42 22.99445 -96.03020 40028 ft 439 kts 216°
2026-05-04 13:42 22.94120 -96.06249 40027 ft 438 kts 216°
2026-05-04 13:43 22.88809 -96.09469 40021 ft 437 kts 216°
2026-05-04 13:43 22.83506 -96.12679 40020 ft 436 kts 216°
2026-05-04 13:44 22.78178 -96.15903 40028 ft 438 kts 216°
2026-05-04 13:44 22.72867 -96.19112 40025 ft 437 kts 216°
2026-05-04 13:45 22.67555 -96.22319 40015 ft 437 kts 216°
2026-05-04 13:45 22.62249 -96.25520 40014 ft 436 kts 215°
2026-05-04 13:46 22.56965 -96.28706 40010 ft 434 kts 215°
2026-05-04 13:46 22.51689 -96.31883 40012 ft 435 kts 215°
2026-05-04 13:47 22.46395 -96.35069 40005 ft 434 kts 216°
2026-05-04 13:47 22.41135 -96.38229 40009 ft 433 kts 215°
2026-05-04 13:48 22.35853 -96.41402 40011 ft 433 kts 215°
2026-05-04 13:48 22.30592 -96.44561 40011 ft 434 kts 216°
2026-05-04 13:49 22.25343 -96.47705 40001 ft 430 kts 215°
2026-05-04 13:49 22.20071 -96.50865 40006 ft 432 kts 215°
2026-05-04 13:50 22.14814 -96.54013 40012 ft 434 kts 215°